Location: Stanford
(52.2833°N, 2.4333°W)
Time: 19:47:23
(UTC+00:00)

Cosmos 1626 Rocket - Pass Details

Date: 22 January 2021
Orbit: 603 x 631 km, 82.5° (Epoch: 27 February)

Event Time Altitude Azimuth Distance (km) Brightness Sun altitude
Rises 18:20:06 0° 171° (S) 2,875 7.0 -15.1°
Reaches altitude 10° 18:22:22 10° 165° (SSE) 1,979 6.1 -15.4°
Maximum altitude 18:26:33 45° 93° (E) 854 3.8 -16.1°
Enters shadow 18:30:08 14° 24° (NNE) 1,764 5.6 -16.6°
